[[{"header":{"parameterUnit":"m.s-1","parameterCategory":1,"la1":30.2991,"la2":30.254,"lo1":-89.0895,"lo2":-89.0444,"dy":0.0017,"dx":0.0017,"nx":28,"ny":28,"refTime":"2024-05-23T21:00:00:Z","depth":0,"parameterNumber":2,"parameterNumberName":"U-component_of_WINDS"},"data":[0,0,0,0,0,0,0,0,0,0,0,0,0,0,0,0,0,0,0,0,0,0,0,0,0,0,0,0,0,0,0,0,0,0,0,0,0,0,0,0,0,0,0,0,0,0,0,0,0,0,0,0,0,0,0,0,0,0,0.2448,0.2448,0,0.2476,0.2477,0.2477,0.2494,0.2494,0.2494,0.2494,0.2524,0.2524,0.2525,0,0,0,0,0,0,0,0,0,0,0,0,0,0.241,0.241,0.2448,0.2448,0.2449,0.2476,0.2477,0.2477,0.2494,0.2494,0.2494,0.2494,0.2523,0.2524,0.2525,0,0,0,0,0,0,0,0,0,0,0,0,0,0.2431,0.2411,0.2448,0.246,0.2462,0.2476,0.2477,0.2477,0.2494,0.2494,0.2494,0.2494,0.2523,0.2524,0.2525,0.253,0,0,0.2529,0.2529,0,0,0,0,0,0,0,0,0.243,0.2432,0.2458,0.246,0.2461,0.2482,0.2474,0.2495,0.2494,0.2482,0.2494,0.2494,0.251,0.2512,0.2517,0.2531,0.2533,0.2529,0.2529,0.253,0.253,0,0,0,0,0,0,0,0.2428,0.2431,0.2459,0.2459,0.246,0.2465,0.2468,0.2478,0.2495,0.2483,0.2484,0.2487,0.251,0.2516,0.2518,0.2533,0.2529,0.253,0.253,0.2531,0.2553,0.2553,0,0,0,0,0,0,0.2425,0.243,0.2458,0.246,0.2445,0.2465,0.2469,0.2475,0.2495,0.2498,0.2487,0.2488,0.2514,0.2516,0.2519,0.2526,0.253,0.2531,0.2531,0.2553,0.2553,0.2553,0,0,0,0,0,0,0.2424,0.2427,0.2457,0.2445,0.245,0.2466,0.2473,0.2475,0.2481,0.2498,0.2501,0.2489,0.2514,0.2517,0.2527,0.2527,0.2531,0.2532,0.2553,0.2553,0.2553,0.254,0,0,0,0,0,0,0.2423,0.2427,0.2428,0.2445,0.245,0.2465,0.2473,0.2476,0.2482,0.2484,0.2501,0.2504,0.2514,0.2525,0.2528,0.2529,0.2533,0.2554,0.2553,0.2553,0.2541,0.254,0.2539,0,0,0,0,0,0.2421,0.2424,0.2428,0.2432,0.2453,0.2465,0.2467,0.2479,0.2482,0.2484,0.2495,0.2503,0.2527,0.2526,0.253,0.2531,0.2554,0.2553,0.2553,0.2541,0.254,0.2539,0,0,0,0,0,0,0.2406,0.2426,0.2432,0.2439,0.245,0.2467,0.247,0.2478,0.2488,0.2489,0.2503,0.2507,0.2516,0.2524,0.2523,0.2536,0.2541,0.2542,0.2531,0.253,0.2529,0.2527,0.2534,0,0,0,0,0,0.2404,0.2412,0.2429,0.2434,0.2439,0.2454,0.2459,0.2468,0.248,0.2484,0.2496,0.2508,0.2518,0.2524,0.2534,0.2542,0.2546,0.2544,0.2543,0.2543,0.2543,0.2548,0.2548,0.2553,0.2553,0.2553,0,0,0.2399,0.2411,0.2415,0.2431,0.2441,0.2449,0.2457,0.2466,0.2472,0.2486,0.2496,0.2505,0.2519,0.2528,0.2532,0.2535,0.2543,0.2542,0.2542,0.2543,0.2548,0.2548,0.2547,0.2553,0.2553,0.2553,0,0,0.2395,0.2404,0.241,0.2419,0.2433,0.2443,0.2444,0.246,0.2467,0.2477,0.2488,0.2496,0.2512,0.2522,0.2529,0.2529,0.2537,0.2532,0.2527,0.2532,0.2532,0.2531,0.2532,0.2532,0.2532,0.2532,0.2532,0,0.2387,0.24,0.2412,0.242,0.2427,0.2439,0.2446,0.2454,0.2471,0.2476,0.2478,0.25,0.251,0.2522,0.2522,0.2527,0.2529,0.253,0.2531,0.2531,0.2531,0.2531,0.2531,0.2531,0.2531,0.2532,0.2532,0,0.239,0.2399,0.2402,0.2417,0.2425,0.2432,0.2445,0.2452,0.2459,0.2469,0.2479,0.2492,0.2505,0.2508,0.2516,0.2521,0.2523,0.2528,0.2533,0.2529,0.253,0.253,0.253,0.2531,0.2531,0.2531,0,0,0.2377,0.24,0.2401,0.2408,0.2425,0.2432,0.2439,0.2452,0.2457,0.2469,0.2476,0.249,0.2495,0.2503,0.2512,0.2516,0.2516,0.2521,0.2521,0.252,0.2523,0.2519,0.2519,0.2521,0.2521,0.2521,0.2522,0,0.2376,0.239,0.2401,0.2412,0.242,0.2432,0.2439,0.245,0.2459,0.2468,0.2478,0.2488,0.2494,0.2499,0.2503,0.2515,0.2517,0.2515,0.2528,0.2528,0.2525,0.252,0.2516,0.2516,0.2522,0.2522,0.2522,0,0.2376,0.2386,0.2397,0.2414,0.2418,0.2423,0.2436,0.2444,0.2457,0.2464,0.2473,0.2482,0.2491,0.2495,0.2508,0.2507,0.2513,0.2519,0.2519,0.2522,0.2525,0.2522,0.2517,0.2517,0.2523,0.2523,0.2523,0,0.2366,0.2383,0.2392,0.2398,0.2417,0.2421,0.2429,0.2442,0.2449,0.246,0.2465,0.2477,0.2484,0.2494,0.2506,0.2507,0.2518,0.2523,0.2524,0.2524,0.2526,0.2526,0.2522,0.2529,0.2529,0.2529,0.2529,0,0.2363,0.237,0.2388,0.2394,0.2401,0.2415,0.2422,0.2431,0.2443,0.2451,0.2462,0.2469,0.2484,0.2494,0.2503,0.2513,0.2516,0.2522,0.2524,0.2521,0.252,0.2526,0.2526,0.2529,0.2529,0.2529,0.2529,0,0.2354,0.2366,0.2377,0.2394,0.2399,0.2404,0.2418,0.2424,0.2434,0.2444,0.2447,0.2462,0.2474,0.2487,0.2503,0.2509,0.2519,0.2522,0.2514,0.2516,0.2517,0.2517,0.2517,0.2517,0.2523,0.2523,0.2523,0,0.2352,0.2357,0.2375,0.2381,0.2389,0.2398,0.2405,0.2419,0.2426,0.2441,0.2445,0.2458,0.2468,0.2486,0.2499,0.2511,0.2515,0.2514,0.2517,0.2514,0.2516,0.2516,0.2517,0.2514,0.2514,0.2514,0.2513,0,0.2347,0.2353,0.2363,0.2375,0.2384,0.2394,0.2405,0.2409,0.2424,0.2432,0.2444,0.2452,0.2468,0.248,0.2494,0.2503,0.2511,0.2512,0.2513,0.251,0.2506,0.2509,0.2513,0.2512,0.2513,0.2513,0.2513,0.2513,0.2342,0.2347,0.2361,0.2371,0.2381,0.2391,0.2397,0.2408,0.2418,0.2432,0.2439,0.2451,0.2464,0.2484,0.2492,0.2502,0.2504,0.2506,0.2506,0.2507,0.2506,0.2504,0.2504,0.2504,0.2504,0.2504,0.2504,0,0.2338,0.2347,0.2357,0.2372,0.238,0.2387,0.2399,0.2406,0.2416,0.2428,0.2438,0.2452,0.2463,0.2477,0.249,0.2495,0.2499,0.2498,0.2498,0.25,0.2503,0.2501,0.2495,0.2495,0.2495,0.2495,0.2495,0.2495,0.2337,0.2347,0.2354,0.2369,0.2378,0.239,0.2396,0.2406,0.2415,0.243,0.244,0.2448,0.2461,0.2475,0.2486,0.249,0.2494,0.2492,0.2497,0.2499,0.25,0.2501,0.2499,0.2493,0.2493,0.2494,0.2494,0.2494]},{"header":{"parameterUnit":"m.s-1","parameterCategory":1,"la1":30.2991,"la2":30.254,"lo1":-89.0895,"lo2":-89.0444,"dy":0.0017,"dx":0.0017,"nx":28,"ny":28,"refTime":"2024-05-23T21:00:00:Z","depth":0,"parameterNumber":3,"parameterNumberName":"V-component_of_WINDS"},"data":[0,0,0,0,0,0,0,0,0,0,0,0,0,0,0,0,0,0,0,0,0,0,0,0,0,0,0,0,0,0,0,0,0,0,0,0,0,0,0,0,0,0,0,0,0,0,0,0,0,0,0,0,0,0,0,0,0,0,5.5728,5.5728,0,5.5699,5.5698,5.5698,5.567,5.567,5.5669,5.5669,5.5636,5.5636,5.5635,0,0,0,0,0,0,0,0,0,0,0,0,0,5.5758,5.5758,5.5728,5.5728,5.5728,5.5699,5.5698,5.5698,5.567,5.567,5.5669,5.5669,5.5636,5.5636,5.5635,0,0,0,0,0,0,0,0,0,0,0,0,0,5.5738,5.5757,5.5728,5.571,5.5708,5.5699,5.5698,5.5698,5.567,5.5669,5.5669,5.5668,5.5636,5.5636,5.5635,5.5641,0,0,5.5632,5.5632,0,0,0,0,0,0,0,0,5.574,5.5737,5.5713,5.5711,5.5709,5.5688,5.5697,5.5679,5.567,5.5684,5.5669,5.5668,5.5653,5.5651,5.5647,5.5639,5.5638,5.5632,5.5632,5.5631,5.5631,0,0,0,0,0,0,0,5.5741,5.5738,5.5717,5.5713,5.571,5.5703,5.5699,5.5693,5.5672,5.5683,5.5681,5.5678,5.5652,5.5648,5.5646,5.5637,5.5632,5.5632,5.5631,5.5631,5.5632,5.5633,0,0,0,0,0,0,5.5745,5.574,5.5717,5.5716,5.5723,5.5703,5.5699,5.5695,5.5672,5.5668,5.5679,5.5677,5.5649,5.5647,5.5645,5.565,5.5631,5.5631,5.563,5.5632,5.5632,5.5633,0,0,0,0,0,0,5.5746,5.5744,5.5719,5.5727,5.5723,5.5703,5.5699,5.5695,5.569,5.5669,5.5665,5.5678,5.5649,5.5646,5.5642,5.5648,5.563,5.563,5.5631,5.5632,5.5633,5.566,0,0,0,0,0,0,5.5747,5.5744,5.5747,5.5727,5.5723,5.5717,5.5699,5.5694,5.5689,5.5687,5.5667,5.5663,5.5648,5.5643,5.5641,5.5647,5.5629,5.5631,5.5632,5.5632,5.5659,5.5662,5.5664,0,0,0,0,0,5.5748,5.5755,5.5747,5.5744,5.5726,5.5718,5.5715,5.5698,5.569,5.5692,5.5678,5.5664,5.5648,5.5643,5.564,5.5646,5.563,5.5631,5.5632,5.5657,5.5661,5.5664,0,0,0,0,0,0,5.5774,5.5752,5.5743,5.5744,5.5733,5.5713,5.5715,5.5703,5.5694,5.5692,5.567,5.5666,5.5665,5.5655,5.565,5.565,5.5637,5.5638,5.5657,5.566,5.5663,5.5666,5.5628,0,0,0,0,0,5.578,5.5776,5.5757,5.5759,5.5754,5.5736,5.5732,5.572,5.5707,5.5702,5.5688,5.5676,5.5669,5.5664,5.5655,5.5657,5.5652,5.5659,5.5662,5.5665,5.5666,5.5666,5.5669,5.5637,5.5637,5.5637,0,0,5.5792,5.578,5.5778,5.5764,5.5754,5.575,5.5732,5.5728,5.5725,5.5701,5.5697,5.5687,5.5672,5.5671,5.567,5.5662,5.5673,5.5666,5.5669,5.5668,5.5667,5.567,5.5673,5.5638,5.5638,5.5637,0,0,5.5812,5.5802,5.5803,5.5794,5.578,5.5768,5.5768,5.575,5.5743,5.5738,5.5721,5.5716,5.5703,5.5693,5.5686,5.5703,5.569,5.5701,5.5716,5.5716,5.5719,5.5721,5.5727,5.5729,5.5702,5.5702,5.5702,0,5.5829,5.5822,5.5805,5.5803,5.5797,5.5777,5.5777,5.5769,5.5753,5.5749,5.5741,5.5725,5.5713,5.571,5.5714,5.5709,5.5709,5.5703,5.572,5.5722,5.5724,5.5729,5.5731,5.5703,5.5703,5.5703,5.5703,0,5.5843,5.5839,5.5842,5.5827,5.5822,5.5821,5.5803,5.5799,5.5788,5.5776,5.5772,5.5758,5.5746,5.5744,5.5733,5.5739,5.5735,5.5724,5.5711,5.5729,5.5733,5.5735,5.5705,5.5705,5.5704,5.5704,0,0,5.5878,5.5855,5.5856,5.585,5.5833,5.5829,5.5827,5.5817,5.5814,5.5803,5.5801,5.5791,5.5781,5.5773,5.576,5.576,5.5774,5.5749,5.5748,5.5754,5.5781,5.5789,5.5792,5.5766,5.5766,5.5766,5.5782,0,5.5895,5.5892,5.5876,5.5877,5.5873,5.5853,5.5852,5.5841,5.583,5.5824,5.5811,5.5805,5.5792,5.5787,5.5787,5.5773,5.5779,5.5772,5.5763,5.5762,5.5767,5.5794,5.5803,5.5819,5.5784,5.5784,5.5784,0,5.5915,5.5906,5.5907,5.589,5.5888,5.5887,5.5876,5.5871,5.5858,5.585,5.5842,5.5828,5.5824,5.5812,5.5806,5.5801,5.5796,5.5789,5.5789,5.5788,5.5774,5.5793,5.5823,5.5826,5.5787,5.5787,5.5786,0,5.594,5.5929,5.5928,5.5923,5.5904,5.5903,5.5895,5.5882,5.5877,5.5867,5.5863,5.5853,5.5848,5.584,5.5823,5.5816,5.5819,5.5805,5.5812,5.5812,5.5813,5.5814,5.5843,5.5811,5.5811,5.581,5.581,0,5.5961,5.5962,5.5939,5.5939,5.5939,5.5921,5.5922,5.5912,5.59,5.5897,5.5879,5.5876,5.5854,5.5848,5.5835,5.5832,5.583,5.5823,5.5819,5.5824,5.5825,5.5821,5.582,5.5811,5.5811,5.5811,5.5811,0,5.599,5.5975,5.5972,5.5955,5.595,5.5951,5.5936,5.5934,5.5922,5.5918,5.5916,5.5897,5.5889,5.5872,5.5859,5.585,5.5851,5.5844,5.5856,5.5853,5.5861,5.5861,5.5889,5.5891,5.5857,5.5858,5.5858,0,5.6004,5.6004,5.5987,5.5984,5.5977,5.5972,5.5967,5.5949,5.5944,5.593,5.593,5.5921,5.5913,5.5901,5.5886,5.5876,5.587,5.588,5.5868,5.5873,5.587,5.587,5.587,5.5883,5.5883,5.5884,5.5884,0,5.6031,5.6023,5.6017,5.6009,5.6003,5.5995,5.5986,5.5985,5.5964,5.596,5.5953,5.5946,5.5934,5.5925,5.5913,5.5904,5.5891,5.5888,5.5889,5.5894,5.5901,5.5897,5.5863,5.5887,5.5887,5.5887,5.5886,5.5886,5.6053,5.6052,5.604,5.6034,5.6025,5.6018,5.6015,5.6003,5.5997,5.5986,5.5976,5.597,5.5956,5.5939,5.5931,5.5925,5.5918,5.592,5.592,5.5921,5.5923,5.5902,5.5923,5.5922,5.5922,5.5922,5.5922,0,5.6079,5.607,5.6065,5.6053,5.6048,5.6037,5.6026,5.6023,5.6017,5.6007,5.6,5.5991,5.5983,5.5967,5.5957,5.5955,5.5949,5.5953,5.5953,5.5951,5.593,5.593,5.5959,5.5959,5.5959,5.5959,5.5959,5.5959,5.6092,5.6091,5.6082,5.6076,5.6067,5.6062,5.6057,5.6049,5.6041,5.6032,5.6025,5.6016,5.6003,5.5992,5.5983,5.5979,5.5976,5.5982,5.5976,5.5956,5.5953,5.5949,5.5949,5.5982,5.5982,5.5998,5.5998,5.5998]}]]